Regional Weather Roundup
Issued by NWS

Home | Current Version | Previous Version | Graphics & Text | Print | Product List | Glossary On
Versions: 1 2 3 4 5 6 7 8 9 10 11 12 13 14 15 16 17 18 19 20 21 22 23 24 25 26 27
000
ASUS45 KPSR 041010
RWRAZ

ARIZONA HOURLY REGIONAL WEATHER ROUNDUP
NATIONAL WEATHER SERVICE PHOENIX AZ
300 AM MST SUN DEC 04 2016

NOTE: FAIR INDICATES FEW OR NO CLOUDS BELOW 12,000 FEET WITH NO
SIGNIFICANT WEATHER AND/OR OBSTRUCTIONS TO VISIBILITY.

AZZ001>003-036-041100-
NORTHWEST ARIZONA

CITY           SKY/WX    TMP DP  RH WIND       PRES   REMARKS
BULLHEAD CITY  CLEAR     55  18  22 N18       30.13F
KINGMAN        CLEAR     34  10  37 E3        30.17R
$$

AZZ004>008-015-016-018-041100-
NORTH CENTRAL ARIZONA

CITY           SKY/WX    TMP DP  RH WIND       PRES   REMARKS
GRAND CANYON   CLEAR     14   9  80 NE6       30.19S WCI   5
PRESCOTT       CLEAR     27  15  61 S5        30.14R WCI  22
FLAGSTAFF      CLEAR     28   7  41 NE17      30.14S WCI  16
PAYSON         CLEAR     39   7  26 VRB3      30.11R
PAGE           CLEAR     31   9  39 CALM      30.20F
$$

AZZ009>014-017-041100-
NORTHEAST ARIZONA

CITY           SKY/WX    TMP DP  RH WIND       PRES   REMARKS
WINSLOW        PTCLDY    19  10  68 E12       30.20R WCI   7
SAINT JOHNS    CLEAR     20  15  81 CALM      30.15S
WINDOW ROCK    CLEAR     14   8  77 S3        30.16R
SHOW LOW       LGT RAIN  18  12  79 N6        30.14F WCI   9
$$

AZZ023-041100-
GREATER PHOENIX AREA

CITY           SKY/WX    TMP DP  RH WIND       PRES   REMARKS
PHOENIX        CLEAR     47  29  49 CALM      30.03S
BUCKEYE        CLEAR     46  18  31 N9        30.07R
LUKE AFB       CLEAR     45  26  46 N8        30.04R
DEER VALLEY    CLEAR     47  18  31 CALM      30.04R
SCOTTSDALE     CLEAR     47  23  38 CALM      30.05S
MESA-GATEWAY   CLEAR     46  23  39 CALM      30.04R
$$

AZZ027-028-041100-
SOUTHWEST MARICOPA COUNTY AND PINAL COUNTY

CITY           SKY/WX    TMP DP  RH WIND       PRES   REMARKS
CASA GRANDE    NOT AVBL
$$

AZZ503-504-507>509-041100-
SOUTHEAST ARIZONA

CITY           SKY/WX    TMP DP  RH WIND       PRES   REMARKS
TUCSON         CLEAR     40  24  53 SE6       30.04R
DAVIS-MONTHAN  CLEAR     39  26  61 E1        30.03R
NOGALES        CLEAR     33  27  78 NE6       30.01S WCI  28
SIERRA VISTA   CLEAR     38  31  76 CALM      30.04S
DOUGLAS        CLEAR     33  32  96 N8        30.03S WCI  26
SAFFORD        CLEAR     35  33  92 NE3       30.04R
$$

AZZ020-021-025-026-031-041100-
SOUTHWEST ARIZONA

CITY           SKY/WX    TMP DP  RH WIND       PRES   REMARKS
YUMA           CLEAR     54  11  18 W8        30.05S
$$

CAZ031-033-041-043-047-048-061-041100-
SOUTHERN CALIFORNIA

CITY           SKY/WX    TMP DP  RH WIND       PRES   REMARKS
DOWNTOWN L.A.  CLEAR     48  32  53 CALM      30.06R
L.A. AIRPORT   CLEAR     48  35  60 E5        30.07R
SAN DIEGO      CLEAR     50  31  48 CALM      30.09S
BURBANK        CLEAR     46  25  43 N6        30.06R
ONTARIO        PTCLDY    51  22  31 CALM      30.06S
RIVERSIDE      CLEAR     55  22  27 NE6       30.06F
PALM SPRINGS   CLEAR     52  21  29 NW9       30.10R
EL CENTRO NAS  CLEAR     44   4  19 W12       30.09S
IMPERIAL       CLEAR     46  16  30 W8        30.07R
BLYTHE         CLEAR     52  10  18 S8        30.10R
NEEDLES        CLEAR     53  14  21 W5        30.13S
$$

NVZ020-UTZ003-041100-
SOUTHERN NEVADA-UTAH

CITY           SKY/WX    TMP DP  RH WIND       PRES   REMARKS
LAS VEGAS      CLEAR     41  12  30 S6        30.18F
SALT LAKE CITY PTCLDY    30  21  69 SE12      30.23F WCI  20
$$

NMZ009-TXZ055-041100-
NEW MEXICO-WEST TEXAS

CITY           SKY/WX    TMP DP  RH WIND       PRES   REMARKS
ALBUQUERQUE    CLOUDY    29  18  63 N6        30.12S WCI  23
EL PASO        PTCLDY    41  37  86 SE3       30.02R
$$


........................KEY........................
SKY/WX - SKY CONDITION/WEATHER
TMP    - TEMPERATURE IN FAHRENHEIT
DP     - DEW POINT IN FAHRENHEIT
RH     - RELATIVE HUMIDITY IN PERCENT
WIND   - DIRECTION AND SPEED IN MILES PER HOUR (MPH)
VRB    - VARIABLE WIND DIRECTION
PRES   - MEAN SEA LEVEL PRESSURE IN INCHES OF MERCURY
         F - FALLING PRESSURE   R - RISING PRESSURE
         S - STEADY PRESSURE
VSB    - VISIBILITY IN MILES
HX     - HEAT INDEX IN FAHRENHEIT
WCI    - WIND CHILL INDEX IN FAHRENHEIT
TC     - TEMPERATURE IN CELSIUS WHICH IS ALSO KNOWN AS
         TEMPERATURE IN CENTIGRADE
AFB    - AIR FORCE BASE
         LUKE AFB IS LUKE AIR FORCE BASE
         DAVIS-MONTHAN IS DAVIS-MONTHAN AIR FORCE BASE
NAS    - NAVAL AIR STATION
         EL CENTRO NAS IS EL CENTRO NAVAL AIR STATION
N/A    - NOT AVAILABLE





USA.gov is the U.S. government's official web portal to all federal, state and local government web resources and services.